Location: Gazon
(48.1318°N, 1.2708°W)
Time: 23:18:22
(UTC+00:00)

Cosmos 1844 Rocket - Pass Details

Date: 18 September 2020
Orbit: 823 x 846 km, 71.0° (Epoch: 25 October)

Event Time Altitude Azimuth Distance (km) Brightness Sun altitude
Rises 19:38:15 0° 182° (S) 3,344 5.6 -15.1°
Reaches altitude 10° 19:40:48 10° 174° (S) 2,417 4.8 -15.5°
Maximum altitude 19:45:54 39° 107° (ESE) 1,218 3.0 -16.3°
Drops below altitude 10° 19:51:03 10° 40° (NE) 2,442 4.9 -17.1°
Sets 19:53:37 0° 33° (NNE) 3,383 5.7 -17.5°
